Location: Astronomy Club of Akron Observatory
(40.9700°N, 81.5606°W)
Time: 01:52:02
(UTC-04:00)

ISS - Visible Passes

Search period start: 19 October 2019 00:00
Search period end: 29 October 2019 00:00
Orbit: 411 x 421 km, 51.6° (Epoch: 19 October)

Date Brightness Start Highest point End Pass type
(mag) Time Alt. Az. Time Alt. Az. Time Alt. Az.
22 Oct -0.8 07:00:35 10° S 07:02:53 17° SE 07:05:11 10° E visible
24 Oct -2.8 06:58:57 10° SW 07:02:11 48° SE 07:05:27 10° ENE visible
25 Oct -1.8 06:11:27 14° S 06:13:42 27° SE 06:16:37 10° ENE visible
26 Oct -0.9 05:25:39 16° ESE 05:25:39 16° ESE 05:27:24 10° E visible
26 Oct -3.7 06:58:35 12° WSW 07:01:40 60° NNW 07:05:01 10° NE visible
27 Oct -3.8 06:12:34 62° SSW 06:13:03 80° SE 06:16:25 10° NE visible
28 Oct -1.1 05:26:23 21° ENE 05:26:23 21° ENE 05:27:42 10° ENE visible
28 Oct -2.6 06:59:18 16° WNW 07:01:18 28° NNW 07:04:17 10° NE visible
